Simultaneous Nadir Overpasses (SNOs) Predictions

Prediction of SNOs between GOES-16 and AQUA Satellite Orbit:

Table of predicted SNOs for the next 14.0 days since TLE Epoch: 10/26/2024
Index Date Time (GOES-16) GOES-16 Lat,Lon AQUA Lat,Lon Distance(km) Time Diff (sec)
1 10/27/2024 19:05:10 -0.01, -75.22 0.92, -70.90 491.59 80
2 10/28/2024 07:24:53 0.01, -75.21 0.08, -75.68 52.12 80
3 10/30/2024 07:04:07 0.01, -75.23 -0.85, -71.25 453.94 80
4 10/30/2024 19:23:59 -0.01, -75.25 -0.20, -76.05 90.90 80
5 11/01/2024 19:08:32 -0.01, -75.28 0.80, -71.62 416.63 80
6 11/02/2024 07:28:14 0.01, -75.28 0.27, -76.38 126.14 80
7 11/04/2024 07:07:25 0.01, -75.30 -0.72, -71.95 382.25 80
8 11/04/2024 19:27:16 -0.01, -75.32 -0.32, -76.74 162.18 80
9 11/06/2024 19:11:44 -0.01, -75.35 0.62, -72.29 347.37 80
10 11/07/2024 07:31:26 0.01, -75.35 0.40, -77.05 194.64 80
